AO-07 1 07530U 74089B 24074.82768910 -.00000033 00000-0 86740-4 0 9997 2 07530 101.9759 68.6029 0011867 264.4461 169.6202 12.53673121257450 UO-11 1 14781U 84021B 24074.84856730 .00002093 00000-0 24424-3 0 9997 2 14781 97.6958 47.0449 0009093 37.7714 322.4138 14.86179753155471 AO-16 1 20439U 90005D 24073.97687693 .00000251 00000-0 10790-3 0 9991 2 20439 98.9013 76.4361 0011615 127.3660 287.2073 14.33300113783697 LO-19 1 20442U 90005G 24074.85596867 .00000272 00000-0 11524-3 0 9994 2 20442 98.8778 62.6735 0012828 101.2708 258.9918 14.33458426784326 AO-27 1 22825U 93061C 24074.13042174 .00000144 00000-0 72998-4 0 9995 2 22825 98.8020 125.8620 0008363 4.5925 355.5332 14.30439783589029 IO-26 1 22826U 93061D 24074.13412008 .00000162 00000-0 79192-4 0 9996 2 22826 98.7967 125.7278 0008595 349.1844 10.9152 14.30815241589302 FO-29 1 24278U 96046B 24074.84790540 .00000051 00000-0 84749-4 0 9994 2 24278 98.5715 21.9053 0351148 72.6705 291.2524 13.53174923361923 NOAA-15 1 25338U 98030A 24074.82980981 .00000209 00000-0 10465-3 0 9993 2 25338 98.5800 103.8851 0009448 236.6361 123.3915 14.26511639343980 GO-32 1 25397U 98043D 24074.17175913 .00000164 00000-0 91374-4 0 9990 2 25397 98.9108 39.5347 0002389 80.3193 279.8255 14.23998940334119 ISS 1 25544U 98067A 24074.47357438 .00014417 00000-0 26085-3 0 9999 2 25544 51.6400 64.8172 0006154 6.2124 132.0674 15.49909089443869 NO-44 1 26931U 01043C 24074.51613698 .00000338 00000-0 15944-3 0 9995 2 26931 67.0501 216.1109 0005415 278.6770 81.3718 14.31145536172566 SO-50 1 27607U 02058C 24074.52028265 .00001686 00000-0 24734-3 0 9998 2 27607 64.5542 152.4100 0035717 155.0004 205.2840 14.78472822142532 CO-55 1 27844U 03031E 24074.81279418 .00000493 00000-0 23783-3 0 9991 2 27844 98.6806 83.1556 0010785 62.3622 297.8649 14.23115438 74394 CO-57 1 27848U 03031J 24074.28852340 .00000413 00000-0 20418-3 0 9991 2 27848 98.6837 82.9347 0010822 77.9944 282.2446 14.22577759 74040 RS-22 1 27939U 03042A 24074.87141337 .00001636 00000-0 28462-3 0 9991 2 27939 98.2769 229.6801 0012125 3.4903 155.3376 14.69465285 94420 NOAA-18 1 28654U 05018A 24074.82968267 .00000229 00000-0 14588-3 0 9996 2 28654 98.8796 152.5674 0013559 334.2140 25.8355 14.13142956969934 CO-58 1 28895U 05043F 24074.86795240 .00002314 00000-0 42062-3 0 9999 2 28895 98.1850 210.6895 0014929 296.5371 63.4302 14.67048729980850 CO-65 1 32785U 08021C 24074.17462965 .00005581 00000-0 51126-3 0 9990 2 32785 97.7450 40.4594 0009440 285.4037 74.6141 14.95296317861343 AAUSAT2 1 32788U 08021F 24074.19829931 .00017226 00000-0 99126-3 0 9996 2 32788 97.5905 54.5577 0008389 127.2172 232.9826 15.12485721864048 CO-66 1 32791U 08021J 24074.44413927 .00008684 00000-0 67616-3 0 9999 2 32791 97.6870 46.3644 0003509 234.6380 125.4517 15.01465539862371 RS-30 1 32953U 08025A 24074.82876910 .00000034 00000-0 17252-3 0 9992 2 32953 82.5049 148.1790 0018139 312.4159 47.5386 12.43136978717405 PRISM 1 33493U 09002B 24074.06363922 .00016797 00000-0 91323-3 0 9992 2 33493 98.2193 113.8086 0013155 207.9878 152.0646 15.14494616824626 NOAA-19 1 33591U 09005A 24074.83879857 .00000215 00000-0 13971-3 0 9999 2 33591 99.0598 129.5962 0013736 194.3109 165.7676 14.12945447778308 SRMSAT 1 37841U 11058D 24074.23595306 .00000548 00000-0 15530-3 0 9992 2 37841 19.9727 11.0466 0012000 130.8228 16.6216 14.11054185641132 HRBE 1 37855U 11061F 24074.84343951 .00076179 00000-0 11325-2 0 9995 2 37855 101.6849 200.5648 0074865 274.2691 84.9993 15.51635507678758 RS-40 1 38735U 12041C 24074.49197990 .00000024 00000-0 10374-3 0 9993 2 38735 82.4742 228.9021 0017915 67.3626 292.9346 12.42604977527519 ZACUBE-1 1 39417U 13066B 24074.40742921 .00004606 00000-0 49672-3 0 9993 2 39417 97.7245 32.6619 0053782 112.9460 247.7445 14.87817050557488 Delfi-N3xt 1 39428U 13066N 24074.30771059 .00007746 00000-0 10260-2 0 9996 2 39428 97.8393 355.2744 0105432 36.6438 324.1923 14.76307134552262 GOMX-1 1 39430U 13066Q 24074.85614549 .00002182 00000-0 37311-3 0 9995 2 39430 97.7464 314.9262 0141237 192.0021 167.7806 14.63453829549242 LO-74 1 39440U 13066AA 24074.83488246 .00003769 00000-0 46041-3 0 9999 2 39440 97.8052 20.6813 0070184 221.2928 138.2966 14.82135896555556 AO-73 1 39444U 13066AE 24074.13367776 .00006232 00000-0 63136-3 0 9992 2 39444 97.7104 35.3038 0051747 96.4135 264.2979 14.90268874555944 SPROUT 1 39770U 14029E 24074.85731765 .00064530 00000-0 26228-2 0 9991 2 39770 98.0067 219.4086 0002712 182.7676 177.3545 15.24299546533186 DTUSAT-2 1 40030U 14033W 24074.80532374 .00007671 00000-0 67679-3 0 9996 2 40030 97.9991 24.9366 0012235 106.2967 253.9601 14.96642902529080 EO-80 1 40032U 14033Y 24074.44267079 .00006086 00000-0 53767-3 0 9997 2 40032 97.9979 24.5803 0011457 107.8782 252.3689 14.96682991529011 HODOYOSHI-1 1 40299U 14070B 24074.84430882 .00019585 00000-0 44725-3 0 9993 2 40299 97.1521 136.4014 0008542 29.1183 331.0539 15.42862703520552 XW-2C 1 40906U 15049H 24074.87218312 .00021879 00000-0 61519-3 0 9999 2 40906 97.4877 89.6309 0006970 281.4435 78.6026 15.36497699469969 XW-2D 1 40907U 15049J 24074.86906343 .00029583 00000-0 71104-3 0 9998 2 40907 97.4829 91.3347 0005412 264.6853 95.3776 15.41268600470139 LILACSAT-2 1 40908U 15049K 24074.85588529 .00008591 00000-0 35525-3 0 9993 2 40908 97.5290 83.0197 0011575 329.3661 30.6899 15.24161612469117 XW-2E 1 40909U 15049L 24074.83421907 .00494051 97000-4 15029-2 0 9994 2 40909 97.4149 104.2473 0005915 176.9173 183.2138 15.91989350471337 XW-2F 1 40910U 15049M 24074.83905808 .00425989 00000-0 15369-2 0 9994 2 40910 97.4259 103.3810 0005965 174.5620 185.5718 15.87609486471043 XW-2B 1 40911U 15049N 24074.85780083 .00028925 00000-0 70679-3 0 9998 2 40911 97.4806 91.5413 0005499 267.2017 92.8599 15.40772714470007 IO-86 1 40931U 15052B 24006.28856983 .00001263 00000-0 84248-4 0 9993 2 40931 6.0004 76.3799 0013541 291.8204 68.0484 14.77555377447321 ChubuSat-2 1 41338U 16012B 24074.27456917 .00005112 00000-0 32765-3 0 9992 2 41338 31.0007 281.0528 0012126 4.5599 355.5147 15.06903684443263 ChubuSat-3 1 41339U 16012C 24074.84838815 .00004635 00000-0 30003-3 0 9999 2 41339 31.0071 275.3336 0012056 15.9113 344.1901 15.06481664443337 Horyu-4 1 41340U 16012D 24074.79255095 .00012109 00000-0 65268-3 0 9994 2 41340 31.0018 229.4591 0011085 92.1582 268.0327 15.13506875443821 e-st@r-II 1 41459U 16025D 24074.85837606 .00150131 00000-0 13712-2 0 9994 2 41459 98.1396 313.9569 0048122 212.0160 147.8172 15.65858389434791 Lapan A3 1 41603U 16040E 24074.80835624 .00003432 00000-0 14268-3 0 9994 2 41603 97.1498 92.8285 0014089 78.4105 281.8714 15.24345823428849 Pratham 1 41783U 16059A 24074.51825423 .00000970 00000-0 19010-3 0 9991 2 41783 97.8460 98.2807 0031697 322.9836 36.9181 14.64588636398685 CAS-2T 1 41847U 16066G 24074.18499227 .00002072 00000-0 30952-3 0 9995 2 41847 98.4685 146.1847 0356670 103.3453 260.7756 14.40854129385819 CAS-4B 1 42759U 17034B 24074.87797412 .00014503 00000-0 58840-3 0 9995 2 42759 43.0124 38.0330 0010378 84.7892 275.4143 15.24404028372993 CAS-4A 1 42761U 17034D 24074.88697241 .00015425 00000-0 62325-3 0 9995 2 42761 43.0128 36.3978 0009619 86.7781 273.4170 15.24508194373004 NIUSat 1 42766U 17036B 24074.35524463 .00161879 00000-0 10819-2 0 9994 2 42766 97.1136 108.8329 0006282 163.6187 196.5283 15.74820506374663 Aalto 1 1 42775U 17036L 24074.84413227 .00044849 00000-0 72247-3 0 9994 2 42775 97.1202 104.3565 0007026 171.6836 188.4535 15.52795022374409 URSA MAIOR 1 42776U 17036M 24074.06954267 .00070480 00000-0 86621-3 0 9994 2 42776 97.1183 106.4099 0006464 166.1660 193.9776 15.60027786374459 Max Valier Sat 1 42778U 17036P 24074.08672824 .00062376 00000-0 74445-3 0 9990 2 42778 97.1194 110.5071 0006361 168.4818 191.6587 15.60830168374636 D-SAT 1 42794U 17036AF 24074.47417318 .00005977 00000-0 43842-3 0 9997 2 42794 97.4909 59.8596 0110719 107.1568 254.1814 14.98995062366558 TechnoSat 1 42829U 17042E 24074.81360776 .00003403 00000-0 31051-3 0 9997 2 42829 97.3834 261.2383 0013669 37.1981 323.0185 14.95637750363067 AO-91 1 43017U 17073E 24074.37337836 .00007167 00000-0 46551-3 0 9995 2 43017 97.5927 313.2960 0215985 250.0713 107.7124 14.91105020341528 TianYi 2 1 43155U 18008A 24074.83426214 .00046775 00000-0 10281-2 0 9995 2 43155 97.2530 128.1350 0008853 67.1747 293.0436 15.43824998340278 Zhou Enlai 1 43156U 18008B 24074.86994116 .00064624 00000-0 12369-2 0 9992 2 43156 97.2566 129.1436 0006607 69.8754 290.3207 15.47817136340250 TianYi 6 1 43158U 18008D 24074.39160922 .00031363 00000-0 86144-3 0 9999 2 43158 97.2674 123.4246 0008857 78.0184 282.2053 15.37135980339869 S-Net D 1 43186U 18014G 24074.24052795 .00004155 00000-0 31112-3 0 9993 2 43186 97.5985 337.8056 0009900 340.6473 19.4375 15.03223655334230 S-Net B 1 43187U 18014H 24074.24239152 .00004296 00000-0 32155-3 0 9992 2 43187 97.5997 337.7497 0010507 335.5660 24.5066 15.03220069334238 S-Net A 1 43188U 18014J 24074.24174633 .00004222 00000-0 31605-3 0 9993 2 43188 97.6001 337.8546 0010418 335.8985 24.1751 15.03225954334231 S-Net C 1 43189U 18014K 24074.31122459 .00004392 00000-0 32846-3 0 9997 2 43189 97.6023 337.8507 0011778 326.6083 33.4399 15.03225663332797 Changshagaoxin 1 43669U 18083H 24074.85867125 .00131279 00000-0 12498-2 0 9996 2 43669 97.3420 110.3999 0004113 181.6997 178.4250 15.66393885298928 Ten-Koh 1 43677U 18084G 24074.40321988 .00003105 00000-0 28862-3 0 9998 2 43677 98.0474 225.2956 0013987 334.3661 25.6864 14.95066205292558 PO-101 1 43678U 18084H 24074.83637881 .00002471 00000-0 23316-3 0 9992 2 43678 98.0575 230.1703 0008813 350.9128 9.1931 14.94711455292825 QO-100 1 43700U 18090A 24074.51854972 .00000134 00000-0 00000+0 0 9997 2 43700 0.0199 151.2884 0001071 208.0265 25.7470 1.00272981 19652 MinXSS-2 1 43758U 18099A 24074.13205866 .00009198 00000-0 62514-3 0 9990 2 43758 97.5646 138.0810 0016746 283.0994 76.8364 15.06464572288468 AO-95 1 43770U 18099N 24074.41702284 .00006207 00000-0 45456-3 0 9995 2 43770 97.5587 134.3703 0013113 331.6417 28.4094 15.03840802288319 RANGE-B 1 43772U 18099Q 24074.13526986 .00009888 00000-0 66361-3 0 9995 2 43772 97.5344 137.3111 0005067 227.8782 132.2016 15.07012536288393 RANGE-A 1 43773U 18099R 24074.08871149 .00004293 00000-0 33907-3 0 9999 2 43773 97.5188 130.3889 0016478 306.3604 53.6099 15.01095718288168 MOVE-II 1 43780U 18099Y 24074.62197078 .00014089 00000-0 83415-3 0 9992 2 43780 97.5321 138.7529 0006063 305.9892 54.0775 15.11515223288627 SNUSat 2 1 43782U 18099AA 24073.98500440 .00006446 00000-0 48028-3 0 9992 2 43782 97.5245 133.5973 0014780 266.3116 93.6420 15.03158333288266 SnugLite 1 43784U 18099AC 24074.40316686 .00005795 00000-0 42195-3 0 9994 2 43784 97.5071 133.4181 0003231 272.3841 87.7015 15.04146178288388 ITASat 1 1 43786U 18099AE 24074.15264018 .00004895 00000-0 37048-3 0 9990 2 43786 97.5240 134.1572 0015884 320.8586 39.1489 15.02668261288298 EAGLET 1 1 43790U 18099AJ 24074.38821983 .00004684 00000-0 36506-3 0 9994 2 43790 97.5345 134.8197 0014408 300.9136 59.0671 15.01590411288047 ESEO 1 43792U 18099AL 24074.17075138 .00002719 00000-0 22890-3 0 9994 2 43792 97.5298 132.0261 0010014 293.6056 66.4116 14.99008902287967 CSIM 1 43793U 18099AM 24074.14217083 .00013982 00000-0 82723-3 0 9994 2 43793 97.5387 139.9230 0012729 279.0222 80.9568 15.11492035288408 JO-97 1 43803U 18099AX 24074.10414125 .00007722 00000-0 54547-3 0 9996 2 43803 97.5326 134.9917 0009105 265.5147 94.5039 15.05154359288388 Suomi 100 1 43804U 18099AY 24074.11308843 .00007774 00000-0 55691-3 0 9995 2 43804 97.5393 134.8077 0015555 264.9716 94.9735 15.04564035288371 CHOMPTT 1 43855U 18104G 24074.22258603 .00122461 00000-0 93431-3 0 9993 2 43855 85.0184 338.3543 0007304 47.3744 312.8140 15.71805179292607 ISAT 1 43879U 18111D 24074.26107210 .00009619 00000-0 63262-3 0 9996 2 43879 97.6272 340.5837 0012599 332.0743 27.9807 15.07722683285104 UWE-4 1 43880U 18111E 24074.26300241 .00008826 00000-0 59063-3 0 9990 2 43880 97.6187 340.8235 0016570 339.7158 20.3409 15.07057815285128 Sparrow 1 43881U 18111F 24074.26255958 .00009692 00000-0 62996-3 0 9996 2 43881 97.6346 342.3162 0011123 16.6721 343.4870 15.08168831285165 AISTechSat 3 1 44103U 19018AB 24074.22086871 .00206595 00000-0 11098-2 0 9990 2 44103 97.1972 140.2577 0002136 308.7827 51.3250 15.79676957276601 AISat 1 1 44104U 19018AC 24074.80437179 .00066461 00000-0 54944-3 0 9990 2 44104 97.3614 179.7172 0022583 331.9503 28.0541 15.69744547277955 Prox-1 1 44339U 19036A 24074.19818651 .00009053 00000-0 16337-2 0 9997 2 44339 23.9994 115.3568 0008941 27.5600 332.5366 14.64415820251294 SONATE 1 44400U 19038Q 24074.48766924 .00017758 00000-0 61840-3 0 9996 2 44400 97.7117 64.7078 0020061 82.9470 277.4049 15.29546025259588 BeeSat 9 1 44412U 19038AC 24073.94996262 .00101925 00000-0 13683-2 0 9990 2 44412 97.6875 73.2270 0012376 67.5138 292.7425 15.57496801259844 JAISAT-1 1 44419U 19038F 24074.46856089 .00096286 00000-0 13170-2 0 9991 2 44419 97.6859 74.8545 0012010 66.3746 293.8768 15.57018904260301 Taurus 1 1 44530U 19059C 24074.85218903 .00005515 00000-0 13310-2 0 9999 2 44530 98.5644 192.7213 0011060 342.9692 17.1131 14.53537095238056 Duchifat 3 1 44854U 19089C 24074.85628204 .00012623 00000-0 70709-3 0 9994 2 44854 36.9575 260.1623 0008587 27.6830 332.4371 15.12810604233892 OPS-SAT 1 44878U 19092F 24074.11580210 .00096029 00000-0 11255-2 0 9999 2 44878 97.4523 275.1275 0005399 232.5024 127.5743 15.61187753235605 TO-108 1 44881U 19093C 24074.81784937 .00001221 00000-0 15527-3 0 9990 2 44881 97.8339 153.4276 0013159 271.4920 88.4786 14.83359966229051 FloripaSat 1 1 44885U 19093G 24074.83262009 .00005162 00000-0 55703-3 0 9995 2 44885 97.8435 158.2262 0011892 265.4147 94.5712 14.88763310229320 RS-44 1 44909U 19096E 24074.27747458 .00000035 00000-0 10336-3 0 9996 2 44909 82.5257 167.8335 0216251 273.0979 84.5399 12.79727376196830 BY70-2 1 45857U 20042B 24074.84286832 .00052381 00000-0 31744-2 0 9995 2 45857 97.9114 163.9024 0008264 188.1045 172.0051 15.10345024200221 UPMSat 2 1 46276U 20061E 24074.13515553 .00013761 00000-0 47216-3 0 9990 2 46276 97.3080 141.7043 0002552 104.0023 256.1501 15.30266569195624 AmicalSat 1 46287U 20061R 24074.45169947 .00022948 00000-0 77659-3 0 9990 2 46287 97.3602 142.1137 0002222 178.7811 181.3435 15.30607895195044 SALSAT 1 46495U 20068K 24074.52342913 .00006613 00000-0 39502-3 0 9998 2 46495 97.8067 31.6264 0012210 278.3921 81.5924 15.11390395190003 AO-109 1 47311U 21002C 24074.25958544 .00192645 00000-0 11568-2 0 9990 2 47311 60.6672 75.9937 0025025 74.2612 286.1258 15.76429890176356 ExoCube 2 1 47319U 21002L 24074.27156091 .00150359 00000-0 10859-2 0 9995 2 47319 60.6646 80.5124 0025671 74.7574 285.6372 15.72287042176240 UVSQ-SAT 1 47438U 21006AB 24074.40571260 .00030674 00000-0 81954-3 0 9997 2 47438 97.3406 134.2878 0007758 187.7627 172.3499 15.38007646174125 YUSAT 1 1 47439U 21006AC 24074.73835706 .00056899 00000-0 11094-2 0 9996 2 47439 97.3393 137.3975 0007051 182.3764 177.7454 15.47311363174351 SOMP 2b 1 47445U 21006AJ 24074.39316085 .00027360 00000-0 77409-3 0 9993 2 47445 97.3371 132.9508 0007637 194.8276 165.2745 15.36250892174063 IDEASSat 1 47458U 21006AX 24074.16812582 .00023858 00000-0 71355-3 0 9997 2 47458 97.3476 133.4368 0007334 196.0225 164.0787 15.34533991173980 CubeSX-Sirius-HSE 1 47951U 21022V 24074.78807340 .00016758 00000-0 74950-3 0 9992 2 47951 97.4707 333.6568 0017635 107.5027 252.8137 15.21236285164206 CubeSX-HSE 1 47952U 21022W 24074.81361119 .00015690 00000-0 70012-3 0 9995 2 47952 97.4704 333.7584 0017538 106.7848 253.5313 15.21330302164217 KSU-Cubesat 1 47954U 21022Y 24074.23220669 .00017119 00000-0 71995-3 0 9996 2 47954 97.4717 334.1319 0016759 104.9952 255.3141 15.23339658163903 GRBAlpha 1 47959U 21022AD 24074.84988854 .00015917 00000-0 70804-3 0 9997 2 47959 97.4710 333.9263 0017414 106.9001 253.4146 15.21435494163044 Orbicraft-Zorkiy 1 47960U 21022AE 24074.81942728 .00017835 00000-0 75886-3 0 9992 2 47960 97.4747 334.8751 0016853 104.3029 256.0080 15.22935016163778 STECCO 1 47962U 21022AG 24074.82319741 .00053125 00000-0 13362-2 0 9990 2 47962 97.4716 341.2694 0011488 80.5417 279.7126 15.39703335163520 MO-110 1 47964U 21022AJ 24074.24198501 .00056231 00000-0 13043-2 0 9994 2 47964 97.4737 341.8991 0012664 77.3310 282.9352 15.42127778163504 TUBIN 1 48900U 21059X 24074.84186346 .00013900 00000-0 53526-3 0 9992 2 48900 97.6311 217.0801 0007950 59.8716 300.3309 15.26451569150510 LEDSAT 1 49069U 21073D 24074.76734982 .00012631 00000-0 56915-3 0 9996 2 49069 97.4462 146.7636 0019836 253.8224 106.0828 15.21008174142087 CUTE 1 49263U 21088D 24074.18631246 .00012673 00000-0 66706-3 0 9998 2 49263 97.5081 141.0531 0015930 54.8124 305.4598 15.15657516135233 TeikyoSat 4 1 49396U 21102B 24074.10728247 .00001543 00000-0 11680-3 0 9997 2 49396 97.4734 122.3545 0012046 235.6510 124.3577 15.03679480128467 Z-Sat 1 49399U 21102E 24074.84038260 .00003404 00000-0 22885-3 0 9997 2 49399 97.4444 124.4195 0019977 217.9632 142.0189 15.07255144128771 KOSEN 1 1 49402U 21102H 24074.39554990 .00005320 00000-0 33116-3 0 9993 2 49402 97.4375 125.1186 0018938 203.6124 156.4238 15.09862136128839 HO-113 1 50466U 21131B 24074.87470365 .00000684 00000-0 23403-3 0 9999 2 50466 98.5298 160.4027 0004967 59.1931 300.9745 14.39415402116434 Tevel-3 1 50988U 22002E 24074.79547188 .00057546 00000-0 11990-2 0 9991 2 50988 97.3911 147.6292 0003516 340.4849 19.6265 15.45389240120384 Tevel-8 1 50989U 22002F 24074.82885117 .00054738 00000-0 11454-2 0 9998 2 50989 97.3929 147.7494 0003518 336.7974 23.3115 15.45276144120382 Tevel-5 1 50998U 22002Q 24074.83389295 .00062450 00000-0 12002-2 0 9995 2 50998 97.3903 148.5751 0004221 326.2043 33.8937 15.47721314120454 Tevel-6 1 50999U 22002R 24074.83521337 .00063354 00000-0 12200-2 0 9995 2 50999 97.3902 148.5584 0004236 325.9870 34.1108 15.47659810120453 Tevel-1 1 51013U 22002AF 24074.81730632 .00054949 00000-0 11497-2 0 9998 2 51013 97.3905 147.5368 0003356 337.8044 22.3059 15.45278579120383 IRIS-A 1 51044U 22002BN 24074.44420647 .00017279 00000-0 65028-3 0 9998 2 51044 97.3952 141.5530 0006559 19.0959 341.0525 15.27167307119941 Tevel-7 1 51062U 22002CG 24074.82251438 .00055032 00000-0 11482-2 0 9993 2 51062 97.3924 147.7150 0003467 336.9302 23.1790 15.45360683120388 Tevel-4 1 51063U 22002CH 24074.84702166 .00055016 00000-0 11560-2 0 9994 2 51063 97.3923 147.6736 0003427 337.1261 22.9834 15.45152770120382 Tevel-2 1 51069U 22002CP 24074.79496266 .00057090 00000-0 11884-2 0 9998 2 51069 97.3909 147.5956 0003459 339.3046 20.8062 15.45418655120382 SO-115 1 51080U 22002DA 24073.68479181 .00107126 00000-0 14772-2 0 9990 2 51080 97.4186 153.7908 0004162 349.9487 10.1684 15.56834430120508 SO-114 1 51081U 22002DB 24074.17159208 .00099163 00000-0 13055-2 0 9995 2 51081 97.4194 154.4333 0003784 343.6080 16.5052 15.58110969120591 OreSat0 1 52017U 22026K 24074.82298892 .00040275 00000-0 97552-3 0 9991 2 52017 97.5053 85.7594 0014972 187.9263 172.1749 15.40867724111124 Planetum 1 1 52738U 22057G 24074.28137040 .00028678 00000-0 90268-3 0 9992 2 52738 97.5546 197.7245 0005711 127.9370 232.2388 15.32883892 99994 Foresail-1 1 52766U 22057AL 24074.86660978 .00017084 00000-0 63582-3 0 9996 2 52766 97.5690 198.5633 0010849 103.6997 256.5450 15.27507508100037 SNUGLITE 2 1 52899U 22065F 24074.37982283 .00001753 00000-0 37194-3 0 9990 2 52899 98.1029 217.4753 0008820 90.5415 269.6796 14.60338433 90420 IO-117 1 53106U 22080B 24069.66819003 -.00000003 00000-0 00000-0 0 9995 2 53106 70.1332 227.0918 0008274 126.4127 233.7296 6.42557646 38879 SelfieSat 1 53951U 22057BC 24074.84884016 .00047428 00000-0 11886-2 0 9996 2 53951 97.5578 200.6094 0005399 119.8635 240.3147 15.39895146100201 FO-118 1 54684U 22167C 24074.84504896 .00020996 00000-0 86351-3 0 9998 2 54684 97.5920 217.9557 0011235 117.1657 243.0727 15.24125663 69901 SSS-2B 1 56184U 23054G 24074.83461410 .00023617 00000-0 72318-3 0 9995 2 56184 97.3805 332.4912 0009267 140.9135 219.2779 15.33772742 51643 CIRBE 1 56188U 23054L 24074.26725636 .00038881 00000-0 97795-3 0 9994 2 56188 97.3730 332.7070 0008389 129.5472 230.6517 15.39807883 51629 INSPIRE-Sat 7 1 56211U 23054AK 24074.22305132 .00038419 00000-0 92424-3 0 9993 2 56211 97.3777 333.6440 0012039 117.4027 242.8446 15.41126020 51678 RoseyCubesat 1 1 56212U 23054AL 24074.85679562 .00047386 00000-0 10706-2 0 9999 2 56212 97.3775 334.6497 0012077 113.3551 246.8968 15.42965587 51795 SO-120 1 56992U 23084BU 24074.76326148 .00020970 00000-0 92176-3 0 9998 2 56992 97.5203 193.6361 0013846 356.8952 3.2196 15.21837581 41791 MRC-100 1 56993U 23084BV 24074.30422656 .00022382 00000-0 95415-3 0 9998 2 56993 97.5209 193.3475 0013574 357.3257 2.7904 15.22870484 41749 UmKA 1 (RS40S) 1 57172U 23091G 24074.83688566 .00005546 00000-0 38204-3 0 9994 2 57172 97.6241 127.8780 0018426 84.4041 275.9287 15.06122129 39289 CubeBel-2 (EU11S) 1 57175U 23091K 24074.88070726 .00006844 00000-0 46801-3 0 9999 2 57175 97.6253 127.8089 0017187 95.7997 264.5190 15.06330756 39289 VERONIKA 1 58261U 23174F 24074.79828697 .00014136 00000-0 71768-3 0 9999 2 58261 97.4679 150.7260 0012929 208.3315 151.7217 15.16941181 19384 KAFASAT 1 58317U 23174BP 24074.78424746 .00018148 00000-0 86361-3 0 9999 2 58317 97.4625 150.9617 0012336 187.1527 172.9534 15.19152207 19402 ENSO 1 58470U 23185J 24074.81934467 .00012491 00000-0 58880-3 0 9991 2 58470 97.4367 142.7494 0012652 246.9829 113.0072 15.19562787 15796 EIRSAT-1 1 58472U 23185L 24074.81544625 .00014492 00000-0 67893-3 0 9993 2 58472 97.4360 142.7434 0012456 247.8503 112.1411 15.19743974 15792 SO-121 1 58567U 23174CY 24074.15695263 .00031712 00000-0 14650-2 0 9994 2 58567 97.4631 150.2884 0014771 201.3688 158.6932 15.20029358 19301 Clark sat-1 (AMBITIOUS) 1 58613U 98067WE 24074.80200493 .00255866 00000-0 16490-2 0 9990 2 58613 51.6327 56.0474 0007835 59.6945 300.4829 15.74808023 13701 BeliefSat 0 1 58695U 24001B 24072.83119694 .00696854 19859-3 79368-3 0 9995 2 58695 9.6608 223.6777 0004962 38.0902 321.9665 16.07587239 11395 /EX
